Regional Weather Roundup
Issued by NWS

Home | Current Version | Previous Version | Text Only | Print | Product List | Glossary Off
Versions: 1 2 3 4 5 6 7 8 9 10 11 12 13 14 15 16 17 18 19 20 21 22 23 24 25 26 27 28 29 30 31 32 33 34 35 36 37 38 39 40 41 42 43 44 45 46 47 48 49 50

000
ASUS43 KBIS 231710
RWRND

NORTH DAKOTA REGIONAL WEATHER ROUNDUP
NATIONAL WEATHER SERVICE BISMARCK ND
1200 PM CDT SAT AUG 23 2014

NOTE: "FAIR" INDICATES FEW OR NO CLOUDS BELOW 12,000 FEET WITH NO
SIGNIFICANT WEATHER AND/OR OBSTRUCTIONS TO VISIBILITY.


NDZ001>003-009>011-017-231800-
NORTHWEST NORTH DAKOTA

CITY           SKY/WX    TMP DP  RH WIND       PRES   REMARKS
WILLISTON      LGT RAIN  57  54  89 NE13      30.05F
MINOT          CLOUDY    57  54  89 NE10      30.06S FOG
MINOT AFB      LGT RAIN  57  57 100 NE12      30.06F
$$

NDZ018>021-031>035-040>046-231800-
SOUTHWEST NORTH DAKOTA

CITY           SKY/WX    TMP DP  RH WIND       PRES   REMARKS
BISMARCK       RAIN      61  60  97 NE15      29.94F FOG
DICKINSON      RAIN      57  56  96 NE14      29.95F FOG
GARRISON         N/A     57  56  96 NE10G21   30.01F
HETTINGER ARPT HVY RAIN  59  58  96 NE17      29.92S FOG
$$

NDZ004>008-012>016-024-026-027-054-231800-
NORTHEAST NORTH DAKOTA

CITY           SKY/WX    TMP DP  RH WIND       PRES   REMARKS
GRAND FORKS    CLOUDY    65  64  97 N10       30.02S
GRND FRKS AFB  CLOUDY    62  62 100 NE10      30.04S
DEVILS LAKE    CLOUDY    61  54  77 NE17      30.02F
$$

NDZ022-023-025-028>030-036>039-047>053-231800-
SOUTHEAST NORTH DAKOTA

CITY           SKY/WX    TMP DP  RH WIND       PRES   REMARKS
FARGO          LGT RAIN  72  68  87 E7        29.98S
JAMESTOWN      RAIN      63  61  93 NE9       29.97F FOG
$$



USA.gov is the U.S. government's official web portal to all federal, state and local government web resources and services.